Location: Unnamed
(45.3580°N, 90.2245°W)
Time: 10:27:32
(UTC-05:00)

Envisat - Pass Details

Date: 07 March 2021
Orbit: 764 x 766 km, 98.1° (Epoch: 17 April)

Event Time Altitude Azimuth Distance (km) Brightness Sun altitude
Rises 04:50:47 0° 23° (NNE) 3,243 6.7 -17.8°
Reaches altitude 10° 04:53:26 10° 35° (NE) 2,311 6.1 -17.3°
Maximum altitude 04:57:46 28° 94° (E) 1,416 5.2 -16.6°
Drops below altitude 10° 05:02:05 10° 153° (SSE) 2,295 5.7 -15.8°
Sets 05:04:41 0° 165° (SSE) 3,216 6.3 -15.4°
